Погода в Актае

Россия / Амурская область     51°44′22″N   127°14′57″E
темп.,
°C
ветер,
м/с
пор.,
м/с
влажн.,
%
обл.,
%
осадки,
мм/ч
давл.,
гПа
погр.,
м
13 апреля, вт
вт1300:00−7ссз49500 0.0 1016897
03:00−8сз4105926 0.0 1014693
06:00−9сз49595 0.0 1013463
09:00−5ссз684288 0.0 10121057
12:00−2ссз6727100 0.0 10092496
15:00−1ссз6729100 0.0 10082591
18:00−3ссз5735100 0.0 10082264
21:00−5ссз484360 0.1 1008572
14 апреля, ср
ср1400:00−6сз49575 0.0 1007581
03:00−7сз496611 0.0 1007456
06:00−8сз37755 0.0 1007350
09:00−4ссз464778 0.0 10081387
12:00−1ссз4529100 0.0 10072302
15:00+1сз3523100 0.0 10062454
18:00+1ссз462510 0.0 10062263
21:00−3с22425 0.0 100929
15 апреля, чт
чт1500:00−4з21452 0.0 100917
03:00−4зюз24485 0.0 100972
06:00−5зюз244623 0.0 100977
09:00+1з243733 0.0 1009738
12:00+4зсз232820 0.0 10091835
15:00+6ссз1126100 0.0 10081798
18:00+5в1229100 0.0 1009929
21:00+2всв2438100 0.0 101193
16 апреля, пт
пт1600:00+1всв4940100 0.0 1010385
03:000всв41049100 0.0 1010398
06:00−1св51049100 0.0 1009446
09:00+1св51040100 0.1 1009816
12:00+3св61134100 0.3 10091454
15:00+3св61040100 0.5 10091415
18:00+3св6104988 0.0 10101278
21:00+1ссв41057100 0.0 1011534
17 апреля, сб
сб1700:00−1с41167100 0.0 1011502
03:00−1с4116978 0.0 1011445
06:00−2с4117245 0.0 1011396
09:00+3с47455 0.0 1011683
12:00+8с46213 0.0 10101366
15:00+10ссз45160 0.0 10081797
18:00+10ссз33180 0.0 10081565
21:00+5ссв11301 0.0 101010